Alturas, CA

11:15 AM PST on December 14, 2017 (GMT -0800)
Alturas Municipal

Weather History for KAAT - March, 2014

Change the Weather History Date:

Thursday, March 27, 2014

  Actual Average Record
Temperature  
Mean Temperature 37 °F 40 °F  
Max Temperature 47 °F 54 °F 78 °F (1966)
Min Temperature 27 °F 25 °F 6 °F (2008)
Degree Days  
Heating Degree Days 28 25  
Month to date heating degree days 642 724  
Since 1 July heating degree days 5407 5591  
Cooling Degree Days 0 0  
Month to date cooling degree days 0 0  
Year to date cooling degree days 0 0  
Moisture  
Dew Point 31 °F    
Average Humidity 69    
Maximum Humidity 92    
Minimum Humidity 45    
Precipitation  
Precipitation 0.09 in 0.06 in 0.39 in (1971)
Month to date precipitation 1.41 1.30  
Year to date precipitation 3.01 4.40  
Sea Level Pressure  
Sea Level Pressure 29.93 in    
Wind  
Wind Speed 9 mph (SW)    
Max Wind Speed 28 mph    
Max Gust Speed 36 mph    
Visibility 8 miles    
Events Fog , Rain , Snow    
T = Trace of Precipitation, MM = Missing Value Source: NWS Daily Summary

Daily Weather History Graph

Daily Weather History Graph

Search for Another Location

Airport or City:

Trip Planner

Search our weather history database for the weather conditions in past years. The results will help you decide how hot, cold, wet, or windy it might be!

Date:

Astronomy

Mar. 27, 2014 Rise Set
Actual Time 6:53 AM PDT 7:22 PM PDT
Civil Twilight 6:25 AM PDT 7:50 PM PDT
Nautical Twilight 5:53 AM PDT 8:22 PM PDT
Astronomical Twilight 5:19 AM PDT 8:56 PM PDT
Moon 4:50 AM PDT (3/27) 4:13 PM PDT (3/27)
Length of Visible Light 13h 24m
Length of Day
12h 28m
Waning Crescent, 12% of the Moon is Illuminated
Mar 27
Waning Crescent
Mar 30
New
Apr 7
First Quarter
Apr 15
Full
Apr 22
Last Quarter

Hourly Weather History & Observations

Time (PDT) Temp. Windchill Dew Point Humidity Pressure Visibility Wind Dir Wind Speed Gust Speed Precip Events Conditions
12:55 AM 30.9 °F 27.5 °F 28.0 °F 89% 29.77 in 10.0 mi SSE 3.5 mph - 0.00 in   Scattered Clouds
1:55 AM 30.9 °F 26.2 °F 28.0 °F 89% 29.79 in 10.0 mi SE 4.6 mph - N/A   Scattered Clouds
2:55 AM 32.0 °F 23.0 °F 28.9 °F 88% 29.79 in 2.0 mi West 11.5 mph - 0.00 in Snow Light Snow
3:06 AM 30.9 °F 22.2 °F 28.9 °F 92% 29.78 in 9.0 mi WSW 10.4 mph - 0.00 in   Scattered Clouds
3:55 AM 28.9 °F - 25.0 °F 85% 29.81 in 10.0 mi Calm Calm - 0.00 in   Clear
4:55 AM 28.9 °F 25.2 °F 25.0 °F 85% 29.83 in 10.0 mi SE 3.5 mph - N/A   Scattered Clouds
5:55 AM 30.9 °F - 27.0 °F 85% 29.83 in 4.0 mi Calm Calm - 0.00 in Snow Light Snow
6:42 AM 30.9 °F 27.5 °F 28.0 °F 89% 29.83 in 6.0 mi South 3.5 mph - 0.00 in Snow Light Snow
6:55 AM 30.9 °F 26.2 °F 28.0 °F 89% 29.86 in 4.0 mi SSW 4.6 mph - 0.00 in Snow Light Snow
7:50 AM 30.2 °F 26.7 °F 28.4 °F 93% 29.86 in 8.0 mi South 3.5 mph - 0.00 in   Scattered Clouds
7:55 AM 30.9 °F 24.3 °F 28.9 °F 92% 29.90 in 10.0 mi Variable 6.9 mph - 0.00 in   Scattered Clouds
8:55 AM 35.1 °F 30.1 °F 30.0 °F 82% 29.91 in 10.0 mi WSW 5.8 mph - N/A   Overcast
9:02 AM 35.1 °F 32.2 °F 30.0 °F 82% 29.89 in 10.0 mi WSW 3.5 mph - N/A   Overcast
9:53 AM 35.6 °F 31.7 °F 30.2 °F 81% 29.91 in 7.0 mi WSW 4.6 mph - 0.01 in Snow Light Snow
9:55 AM 35.1 °F 30.1 °F 30.0 °F 82% 29.94 in 8.0 mi WSW 5.8 mph - 0.01 in   Overcast
10:09 AM 34.0 °F 31.0 °F 30.0 °F 85% 29.92 in 2.0 mi WSW 3.5 mph - 0.00 in Snow Light Snow
10:16 AM 34.0 °F 29.8 °F 30.0 °F 85% 29.92 in 1.5 mi West 4.6 mph - 0.01 in Snow Light Snow
10:29 AM 33.1 °F 30.0 °F 30.0 °F 89% 29.93 in 0.8 mi South 3.5 mph - 0.02 in Snow Light Snow
10:38 AM 33.1 °F 30.0 °F 30.9 °F 92% 29.93 in 0.5 mi South 3.5 mph - 0.03 in Fog , Snow Snow
10:55 AM 33.1 °F 30.0 °F 32.0 °F 96% 29.96 in 1.0 mi SE 3.5 mph - 0.05 in Snow Light Snow
11:03 AM 35.1 °F - 33.1 °F 92% 29.93 in 3.0 mi Calm Calm - 0.00 in Snow Light Snow
11:14 AM 37.0 °F 34.5 °F 33.1 °F 86% 29.94 in 10.0 mi SSE 3.5 mph - 0.00 in   Overcast
11:55 AM 37.9 °F 32.1 °F 32.0 °F 79% 29.97 in 6.0 mi West 8.1 mph - 0.01 in Rain Light Rain
12:03 PM 39.0 °F 34.8 °F 33.1 °F 79% 29.95 in 7.0 mi West 5.8 mph - 0.00 in Rain Light Rain
12:55 PM 39.9 °F 30.5 °F 32.0 °F 73% 29.97 in 10.0 mi SW 19.6 mph 32.2 mph 0.00 in Rain Light Rain
1:12 PM 41.0 °F 34.3 °F 35.1 °F 79% 29.94 in 10.0 mi West 11.5 mph - 0.00 in Rain Light Rain
1:19 PM 42.1 °F 34.5 °F 34.0 °F 73% 29.94 in 10.0 mi WSW 15.0 mph 23.0 mph 0.00 in   Mostly Cloudy
1:55 PM 44.1 °F 35.4 °F 32.0 °F 63% 29.95 in 10.0 mi West 21.9 mph - 0.00 in   Mostly Cloudy
2:55 PM 43.0 °F 32.9 °F 30.0 °F 60% 29.96 in 10.0 mi West 27.6 mph 35.7 mph N/A   Mostly Cloudy
3:55 PM 45.0 °F 37.9 °F 32.0 °F 60% 29.96 in 10.0 mi WSW 16.1 mph 26.5 mph 0.00 in   Mostly Cloudy
4:55 PM 46.0 °F 38.3 °F 27.0 °F 47% 29.96 in 10.0 mi WSW 20.7 mph 31.1 mph N/A   Scattered Clouds
5:55 PM 43.0 °F 34.8 °F 28.0 °F 56% 29.98 in 10.0 mi WSW 18.4 mph 24.2 mph N/A   Partly Cloudy
6:55 PM 41.0 °F 33.5 °F 28.0 °F 60% 29.99 in 10.0 mi WSW 13.8 mph - N/A   Mostly Cloudy
7:55 PM 39.0 °F 33.4 °F 30.0 °F 70% 30.01 in 10.0 mi SW 8.1 mph - N/A   Overcast
8:55 PM 39.0 °F 35.7 °F 32.0 °F 76% 30.02 in 10.0 mi SSW 4.6 mph - N/A   Overcast
9:11 PM 39.0 °F 34.0 °F 32.0 °F 76% 30.01 in 10.0 mi SW 6.9 mph - N/A   Overcast
9:55 PM 37.9 °F - 33.1 °F 83% 30.04 in 10.0 mi Calm Calm - 0.00 in Rain Light Rain
10:27 PM 37.9 °F 34.4 °F 33.1 °F 83% 30.02 in 10.0 mi South 4.6 mph - 0.01 in Rain Light Rain
10:50 PM 37.4 °F 34.9 °F 33.8 °F 87% 30.03 in 10.0 mi WSW 3.5 mph - 0.01 in Rain Light Rain
10:55 PM 37.0 °F 33.3 °F 34.0 °F 89% 30.06 in 10.0 mi WSW 4.6 mph - 0.01 in Rain Light Rain
11:09 PM 37.0 °F 34.5 °F 34.0 °F 89% 30.03 in 10.0 mi SW 3.5 mph - 0.01 in   Overcast
11:55 PM 37.0 °F - 34.0 °F 89% 30.05 in 10.0 mi Calm Calm - 0.01 in   Overcast